Regional Weather Roundup
Issued by NWS

Home | Current Version | Previous Version | Graphics & Text | Print | Product List | Glossary On
Versions: 1 2 3 4 5 6 7 8 9 10 11 12 13 14 15 16 17 18 19 20 21 22 23 24 25 26 27 28 29 30 31 32 33 34 35 36 37 38 39 40 41 42 43 44 45 46 47 48 49 50
948
ASUS45 KCYS 092310
RWRWY

WYOMING REGIONAL WEATHER ROUNDUP
NATIONAL WEATHER SERVICE CHEYENNE WY
400 PM MST FRI DEC 09 2016

NOTE:  "FAIR" INDICATES FEW OR NO CLOUDS BELOW 12,000 FEET
WITH NO SIGNIFICANT WEATHER AND/OR OBSTRUCTIONS TO VISIBILITY.

WYZ001-100000-
YELLOWSTONE NATIONAL PARK

CITY           SKY/WX    TMP DP  RH WIND       PRES   REMARKS
LK YELLOWSTONE   N/A     25  22  88 VRB3      29.98S
W YELLOWSTONE  NOT AVBL

$$
WYZ002>013-054>058-071-098>099-100000-
NORTHERN WYOMING

CITY           SKY/WX    TMP DP  RH WIND       PRES   REMARKS
JACKSON        LGT SNOW  28  28 100 SW12      30.01F WCI  18
CODY           FAIR       9   1  70 CALM      30.06F
GREYBULL       FAIR      15   2  56 S5        30.12F WCI   8
WORLAND        FAIR      13   4  67 CALM      30.11F
SHERIDAN       FAIR      10   0  63 CALM      30.18F
BUFFALO        FAIR       7  -1  70 E3        30.11S
GILLETTE       CLOUDY     6   1  80 N5        30.16S WCI  -3
HULETT         CLOUDY     5   0  78 CALM      30.19S
NEWCASTLE      FAIR      10   1  67 CALM      30.20S

$$
WYZ014>020-022>026-101>103-100000-
CENTRAL WYOMING

CITY           SKY/WX    TMP DP  RH WIND       PRES   REMARKS
BIG PINEY      CLOUDY    17  14  88 NE3       30.08F
PINEDALE       LGT SNOW  23  21  93 MISG      30.09S
DUBOIS         CLOUDY    30  23  74 NW7       29.96S WCI  23
LANDER         CLOUDY    18   6  59 CALM      30.01F
RIVERTON       FAIR      21   6  52 NE3       30.04S
CASPER         FAIR       8   2  76 E5        30.07S WCI   0
DOUGLAS        CLOUDY    11   3  70 S5        30.13S WCI   3

$$
WYZ021-027>030-104>119-100000-
SOUTHERN WYOMING

CITY           SKY/WX    TMP DP  RH WIND       PRES   REMARKS
EVANSTON       MOCLDY    35  27  72 SW13      30.12S WCI  26
KEMMERER         N/A     32  30  93 W15       30.10S WCI  22
FORT BRIDGER   CLOUDY    39  31  73 W18G26    30.14F WCI  29
ROCK SPRINGS   FAIR      36  28  73 W24       30.09R WCI  24
DIXON          CLOUDY    37  24  58 SW13      30.17F WCI  29
RAWLINS        FLURRIES  35  26  69 SW22G30   30.10R WCI  23
SARATOGA       CLOUDY    36  27  69 SW20G25   30.13F WCI  25
LARAMIE        MOCLDY    35  22  58 SW17      30.08S WCI  25
CHEYENNE       FAIR      42  23  46 S9        30.08F
TORRINGTON     FAIR      24  10  55 CALM      30.16S
PINE BLUFFS    FAIR      27  18  69 NE5G16    30.12F WCI  21

$$




USA.gov is the U.S. government's official web portal to all federal, state and local government web resources and services.